Stornoway, United Kingdom

12:42 AM BST on October 16, 2018 (GMT +0100)
Stornoway

Weather History for EGPO - October, 2018

Change the Weather History Date:

Thursday, October 11, 2018

  Actual Average Record
Temperature  
Mean Temperature 56 °F -  
Max Temperature 61 °F 51 °F 62 °F (2006)
Min Temperature 51 °F 42 °F 33 °F (2011)
Degree Days  
Heating Degree Days 9    
Growing Degree Days 6 (Base 50)    
Moisture  
Dew Point 51 °F    
Average Humidity 81    
Maximum Humidity 100    
Minimum Humidity 64    
Precipitation  
Precipitation 0.24 in 0.18 in - ()
Sea Level Pressure  
Sea Level Pressure 29.38 in    
Wind  
Wind Speed 10 mph ()    
Max Wind Speed 25 mph    
Max Gust Speed -    
Visibility 7.9 miles    
Events Rain    
Averages and records for this station are not official NWS values.
T = Trace of Precipitation, MM = Missing Value Source: Averaged Metar Reports

Daily Weather History Graph

Daily Weather History Graph

Search for Another Location

Airport or City:

Astronomy

Oct. 11, 2018 Rise Set
Actual Time 7:51 AM BST 6:31 PM BST
Civil Twilight 7:11 AM BST 7:11 PM BST
Nautical Twilight 6:26 AM BST 7:56 PM BST
Astronomical Twilight 5:39 AM BST 8:42 PM BST
Moon 10:30 AM BST (10/11) 7:53 PM BST (10/11)
Length of Visible Light 11h 59m
Length of Day
10h 39m
Waxing Crescent, 6% of the Moon is Illuminated
Oct 11
Waxing Crescent
Oct 16
First Quarter
Oct 24
Full
Oct 31
Last Quarter
Nov 7
New

Hourly Weather History & Observations

Time (BST) Temp. Dew Point Humidity Pressure Visibility Wind Dir Wind Speed Gust Speed Precip Events Conditions
12:00 AM 57 °F 52 °F 76% 29.60 in 17 mi SSE 5.8 mph - -  
12:20 AM 57.2 °F 51.8 °F 82% 29.59 in 6.2 mi Variable 3.5 mph - N/A   Unknown
12:50 AM 59.0 °F 51.8 °F 77% 29.56 in 6.2 mi SSE 12.7 mph - N/A   Unknown
1:00 AM 52 °F 48 °F 83% 29.42 in 13 mi South 13.8 mph - -   Scattered Clouds
1:20 AM 59.0 °F 51.8 °F 77% 29.56 in 6.2 mi SSE 9.2 mph - N/A   Unknown
1:50 AM 59.0 °F 51.8 °F 77% 29.53 in 6.2 mi SSE 10.4 mph - N/A   Unknown
2:00 AM 60 °F 52 °F 67% 29.56 in 19 mi SE 13.8 mph - -  
2:20 AM 59.0 °F 51.8 °F 77% 29.53 in 6.2 mi South 4.6 mph - N/A   Unknown
2:50 AM 53.6 °F 50.0 °F 88% 29.53 in 6.2 mi North 4.6 mph - N/A   Unknown
3:00 AM 54 °F 49 °F 79% 29.52 in 11 mi North 4.6 mph - -  
3:20 AM 57.2 °F 51.8 °F 82% 29.50 in 6.2 mi ESE 10.4 mph - N/A   Unknown
3:50 AM 57.2 °F 51.8 °F 82% 29.47 in 6.2 mi ESE 12.7 mph - N/A   Unknown
4:00 AM 56 °F 52 °F 80% 29.49 in 11 mi ESE 13.8 mph - -   Scattered Clouds
4:20 AM 59.0 °F 51.8 °F 77% 29.47 in 6.2 mi SE 16.1 mph - N/A   Unknown
4:50 AM 57.2 °F 51.8 °F 82% 29.44 in 6.2 mi SSE 10.4 mph - N/A   Unknown
5:00 AM 58 °F 51 °F 71% 29.47 in 14 mi SE 11.5 mph - -  
5:20 AM 59.0 °F 51.8 °F 77% 29.42 in - SE 20.7 mph - N/A   Clear
5:50 AM 59.0 °F 50.0 °F 72% 29.39 in - SE 21.9 mph - N/A   Clear
6:00 AM 58 °F 49 °F 64% 29.40 in 11 mi ESE 25.3 mph - -   Scattered Clouds
6:20 AM 57.2 °F 50.0 °F 77% 29.42 in - SSW 10.4 mph - N/A   Clear
6:50 AM 57.2 °F 50.0 °F 77% 29.42 in 6.2 mi SE 9.2 mph - N/A   Partly Cloudy
7:00 AM 57 °F 49 °F 67% 29.42 in 15 mi SE 6.9 mph - -  
7:20 AM 57.2 °F 50.0 °F 77% 29.39 in 6.2 mi SE 16.1 mph - N/A   Scattered Clouds
7:50 AM 57.2 °F 48.2 °F 72% 29.39 in 6.2 mi SE 15.0 mph - N/A   Scattered Clouds
8:20 AM 55.4 °F 50.0 °F 82% 29.39 in 6.2 mi SE 12.7 mph - N/A   Partly Cloudy
8:50 AM 57.2 °F 50.0 °F 77% 29.36 in 6.2 mi ESE 15.0 mph - N/A   Partly Cloudy
9:00 AM 57 °F 50 °F 70% 29.38 in 11 mi ESE 13.8 mph - -   Scattered Clouds
9:20 AM 57.2 °F 50.0 °F 77% 29.36 in - ESE 10.4 mph - N/A   Clear
9:50 AM 59.0 °F 51.8 °F 77% 29.36 in - East 5.8 mph - N/A   Clear
10:00 AM 58 °F 51 °F 71% 29.36 in 8 mi ESE 9.2 mph - -   Mostly Cloudy
10:20 AM 59.0 °F 51.8 °F 77% 29.33 in - South 6.9 mph - N/A   Clear
10:50 AM 60.8 °F 51.8 °F 72% 29.33 in - South 8.1 mph - N/A   Clear
11:00 AM 60 °F 51 °F 65% 29.33 in 11 mi SE 12.7 mph - -   Mostly Cloudy
11:20 AM 59.0 °F 51.8 °F 77% 29.33 in - SSE 6.9 mph - N/A   Clear
11:50 AM 59.0 °F 51.8 °F 77% 29.33 in - SSE 6.9 mph - N/A   Clear
12:00 PM 58 °F 52 °F 73% 29.32 in 8 mi SSE 9.2 mph - -   Mostly Cloudy
12:20 PM 57.2 °F 51.8 °F 82% 29.30 in 6.2 mi SSE 8.1 mph - N/A   Mostly Cloudy
12:50 PM 59.0 °F 51.8 °F 77% 29.33 in 6.2 mi South 11.5 mph - N/A   Mostly Cloudy
1:00 PM 58 °F 51 °F 72% 29.32 in 11 mi South 11.5 mph - - Rain Light Rain
1:20 PM 57.2 °F 51.8 °F 82% 29.33 in 6.2 mi SSE 5.8 mph - N/A   Mostly Cloudy
1:50 PM 59.0 °F 53.6 °F 82% 29.30 in 6.2 mi SSW 11.5 mph - N/A   Scattered Clouds
2:00 PM 58 °F 53 °F 78% 29.31 in 7 mi South 10.4 mph - - Rain Rain
2:20 PM 57.2 °F 53.6 °F 88% 29.30 in 6.2 mi South 13.8 mph - N/A   Scattered Clouds
2:50 PM 59.0 °F 53.6 °F 82% 29.27 in 6.2 mi South 15.0 mph - N/A   Scattered Clouds
3:00 PM 58 °F 54 °F 80% 29.28 in 8 mi SSE 11.5 mph - -   Mostly Cloudy
3:20 PM 59.0 °F 55.4 °F 88% 29.27 in 6.2 mi South 10.4 mph - N/A   Scattered Clouds
3:50 PM 57.2 °F 53.6 °F 88% 29.27 in 6.2 mi South 9.2 mph - N/A   Scattered Clouds
4:00 PM 57 °F 53 °F 84% 29.28 in 10 mi SSE 10.4 mph - -   Scattered Clouds
4:20 PM 59.0 °F 53.6 °F 82% 29.27 in 6.2 mi SSE 12.7 mph - N/A   Scattered Clouds
4:50 PM 57.2 °F 53.6 °F 88% 29.24 in 6.2 mi South 12.7 mph - N/A   Scattered Clouds
5:00 PM 58 °F 53 °F 78% 29.25 in 16 mi SSE 12.7 mph - -   Mostly Cloudy
5:20 PM 57.2 °F 53.6 °F 88% 29.24 in 6.2 mi SSE 6.9 mph - N/A   Scattered Clouds
5:50 PM 57.2 °F 53.6 °F 88% 29.24 in 6.2 mi SSE 6.9 mph - N/A Rain Light Rain
6:00 PM 57 °F 53 °F 82% 29.24 in 7 mi SSE 8.1 mph - - Rain Light Rain Showers
6:20 PM 51.8 °F 51.8 °F 100% 29.30 in 4.3 mi West 15.0 mph - N/A Rain Rain
6:50 PM 51.8 °F 51.8 °F 100% 29.30 in 4.3 mi WSW 12.7 mph - N/A Rain Light Rain
7:00 PM 52 °F 50 °F 91% 29.31 in 7 mi WSW 13.8 mph - - Rain Light Rain
7:20 PM 51.8 °F 50.0 °F 94% 29.33 in 6.2 mi WSW 11.5 mph - N/A Rain Light Rain
7:50 PM 51.8 °F 48.2 °F 88% 29.33 in 6.2 mi SSW 11.5 mph - N/A Rain Light Rain
8:00 PM 51 °F 49 °F 88% 29.35 in 28 mi SSW 12.7 mph - - Rain Rain
8:20 PM 51.8 °F 48.2 °F 88% 29.36 in 6.2 mi SSW 18.4 mph - N/A   Unknown
8:50 PM 51.8 °F 48.2 °F 88% 29.39 in 6.2 mi SSW 13.8 mph - N/A   Scattered Clouds
9:00 PM 52 °F 48 °F 82% 29.39 in 12 mi SSW 13.8 mph - -   Scattered Clouds
9:20 PM 51.8 °F 50.0 °F 94% 29.39 in 6.2 mi SSW 13.8 mph - N/A   Mostly Cloudy
9:50 PM 51.8 °F 50.0 °F 94% 29.42 in 6.2 mi SSW 13.8 mph - N/A   Mostly Cloudy
10:00 PM 52 °F 50 °F 91% 29.42 in 9 mi SSW 15.0 mph - - Rain Rain
10:20 PM 51.8 °F 50.0 °F 94% 29.42 in 6.2 mi SSW 13.8 mph - N/A   Scattered Clouds
10:50 PM 51.8 °F 50.0 °F 94% 29.42 in 6.2 mi SSW 15.0 mph - N/A   Partly Cloudy
11:00 PM 52 °F 49 °F 86% 29.43 in 9 mi SSW 15.0 mph - -   Scattered Clouds
11:20 PM 51.8 °F 50.0 °F 94% 29.42 in 6.2 mi SSW 12.7 mph - N/A   Partly Cloudy
11:50 PM 51.8 °F 50.0 °F 94% 29.42 in 6.2 mi SSW 15.0 mph - N/A   Unknown